| time (UTC) | temp C | wind direction | speed KPH | gust KPH | rain 1hr cm | rain 24hr cm | rain mn cm | humidity % | barometer mb |
| 20260509112436 | 21 | 195 | 0.0 | 3.2 | 0.00 | 0.00 | 0.00 | 96 | 1011.0 |
| 20260509111932 | 21 | 191 | 0.0 | 1.6 | 0.00 | 0.00 | 0.00 | 96 | 1011.0 |
| 20260509111430 | 21 | 193 | 3.2 | 3.2 | 0.00 | 0.00 | 0.00 | 96 | 1011.0 |
| 20260509110927 | 21 | 202 | 3.2 | 3.2 | 0.00 | 0.00 | 0.00 | 96 | 1010.8 |
| 20260509110423 | 21 | 189 | 0.0 | 0.0 | 0.00 | 0.00 | 0.00 | 96 | 1010.9 |
| 20260509105921 | 21 | 191 | 0.0 | 0.0 | 0.00 | 0.00 | 0.00 | 96 | 1011.0 |
| 20260509105420 | 21 | 195 | 0.0 | 0.0 | 0.00 | 0.00 | 0.00 | 96 | 1010.7 |
| 20260509104916 | 21 | 216 | 0.0 | 0.0 | 0.00 | 0.00 | 0.00 | 96 | 1010.7 |
| 20260509104413 | 21 | 194 | 0.0 | 1.6 | 0.00 | 0.00 | 0.00 | 96 | 1010.7 |
| 20260509103910 | 21 | 193 | 1.6 | 3.2 | 0.00 | 0.00 | 0.00 | 96 | 1010.5 |
| 20260509103407 | 21 | 240 | 1.6 | 3.2 | 0.00 | 0.00 | 0.00 | 96 | 1010.4 |
| 20260509102906 | 21 | 194 | 0.0 | 1.6 | 0.00 | 0.00 | 0.00 | 97 | 1010.0 |
| 20260509102403 | 21 | 173 | 0.0 | 0.0 | 0.00 | 0.00 | 0.00 | 97 | 1009.8 |
| 20260509101859 | 21 | 193 | 0.0 | 0.0 | 0.00 | 0.00 | 0.00 | 96 | 1009.9 |
| 20260509101355 | 21 | 195 | 0.0 | 6.4 | 0.00 | 0.00 | 0.00 | 97 | 1010.0 |
| 20260509100853 | 21 | 294 | 4.8 | 6.4 | 0.00 | 0.00 | 0.00 | 96 | 1009.9 |
| 20260509100350 | 21 | 202 | 1.6 | 4.8 | 0.00 | 0.00 | 0.00 | 96 | 1009.3 |
| 20260509095846 | 21 | 213 | 1.6 | 6.4 | 0.00 | 0.00 | 0.00 | 96 | 1008.8 |
| 20260509095344 | 20 | 193 | 6.4 | 11.3 | 0.00 | 0.00 | 0.00 | 96 | 1008.6 |
| 20260509094841 | 20 | 182 | 8.0 | 12.9 | 0.00 | 0.00 | 0.00 | 96 | 1008.8 |
| 20260509094337 | 20 | 179 | 4.8 | 9.7 | 0.00 | 0.00 | 0.00 | 96 | 1008.6 |
| 20260509093835 | 20 | 196 | 6.4 | 16.1 | 0.00 | 0.00 | 0.00 | 96 | 1008.8 |
| 20260509093332 | 20 | 199 | 3.2 | 11.3 | 0.00 | 0.00 | 0.00 | 96 | 1008.6 |
| 20260509092831 | 20 | 203 | 11.3 | 17.7 | 0.00 | 0.00 | 0.00 | 97 | 1008.4 |
| 20260509092328 | 20 | 212 | 4.8 | 16.1 | 0.00 | 0.00 | 0.00 | 97 | 1008.5 |
| 20260509091826 | 20 | 205 | 6.4 | 9.7 | 0.00 | 0.00 | 0.00 | 96 | 1008.6 |
| 20260509091323 | 20 | 208 | 3.2 | 16.1 | 0.00 | 0.00 | 0.00 | 96 | 1008.7 |
| 20260509090820 | 20 | 202 | 8.0 | 11.3 | 0.00 | 0.00 | 0.00 | 96 | 1008.8 |
| 20260509090317 | 20 | 143 | 6.4 | 12.9 | 0.00 | 0.00 | 0.00 | 96 | 1009.2 |
| 20260509085814 | 20 | 207 | 4.8 | 11.3 | 0.00 | 0.00 | 0.00 | 95 | 1009.4 |
| 20260509085312 | 20 | 223 | 3.2 | 4.8 | 0.00 | 0.00 | 0.00 | 95 | 1009.9 |
| 20260509084808 | 20 | 198 | 4.8 | 11.3 | 0.00 | 0.00 | 0.00 | 95 | 1009.9 |
| 20260509084305 | 20 | 199 | 6.4 | 6.4 | 0.00 | 0.00 | 0.00 | 95 | 1010.0 |
| 20260509083803 | 20 | 174 | 3.2 | 6.4 | 0.00 | 0.00 | 0.00 | 95 | 1010.3 |
| 20260509083259 | 20 | 218 | 3.2 | 6.4 | 0.00 | 0.00 | 0.00 | 94 | 1010.3 |
| 20260509082756 | 20 | 185 | 3.2 | 9.7 | 0.00 | 0.00 | 0.00 | 94 | 1010.5 |
| 20260509082252 | 20 | 192 | 1.6 | 4.8 | 0.00 | 0.00 | 0.00 | 94 | 1010.9 |
| 20260509081749 | 20 | 211 | 3.2 | 3.2 | 0.00 | 0.00 | 0.00 | 94 | 1011.4 |
| 20260509081247 | 20 | 193 | 0.0 | 1.6 | 0.00 | 0.00 | 0.00 | 94 | 1011.4 |
| 20260509080745 | 20 | 191 | 0.0 | 3.2 | 0.00 | 0.00 | 0.00 | 94 | 1011.6 |
| 20260509080242 | 20 | 188 | 1.6 | 3.2 | 0.00 | 0.00 | 0.00 | 94 | 1011.6 |
| 20260509075740 | 20 | 189 | 0.0 | 0.0 | 0.00 | 0.00 | 0.00 | 94 | 1011.8 |
| 20260509075238 | 20 | 193 | 0.0 | 0.0 | 0.00 | 0.00 | 0.00 | 94 | 1011.7 |
| 20260509074734 | 20 | 191 | 0.0 | 0.0 | 0.00 | 0.00 | 0.00 | 94 | 1011.9 |
| 20260509074232 | 20 | 192 | 0.0 | 1.6 | 0.00 | 0.00 | 0.00 | 94 | 1011.9 |
| 20260509073728 | 20 | 192 | 0.0 | 0.0 | 0.00 | 0.00 | 0.00 | 94 | 1011.8 |
| 20260509073224 | 20 | 192 | 0.0 | 0.0 | 0.00 | 0.00 | 0.00 | 94 | 1011.9 |
| 20260509072721 | 20 | 197 | 1.6 | 1.6 | 0.00 | 0.00 | 0.00 | 94 | 1012.1 |
| 20260509072218 | 20 | 191 | 0.0 | 3.2 | 0.00 | 0.00 | 0.00 | 94 | 1011.8 |
| 20260509071715 | 20 | 189 | 0.0 | 1.6 | 0.00 | 0.00 | 0.00 | 93 | 1011.4 |
| 20260509071212 | 20 | 191 | 1.6 | 4.8 | 0.00 | 0.00 | 0.00 | 93 | 1011.5 |
| 20260509070709 | 20 | 193 | 0.0 | 1.6 | 0.00 | 0.00 | 0.00 | 92 | 1011.5 |
| 20260509070205 | 20 | 195 | 0.0 | 1.6 | 0.00 | 0.00 | 0.00 | 92 | 1011.5 |
| 20260509065701 | 20 | 201 | 1.6 | 3.2 | 0.00 | 0.00 | 0.00 | 92 | 1011.3 |
| 20260509065158 | 20 | 200 | 3.2 | 3.2 | 0.00 | 0.00 | 0.00 | 91 | 1011.5 |
| 20260509064654 | 21 | 192 | 1.6 | 4.8 | 0.00 | 0.00 | 0.00 | 91 | 1011.3 |
| 20260509064152 | 20 | 184 | 3.2 | 3.2 | 0.00 | 0.00 | 0.00 | 91 | 1011.1 |
| 20260509063649 | 20 | 185 | 1.6 | 1.6 | 0.00 | 0.00 | 0.00 | 91 | 1011.5 |
| 20260509063145 | 20 | 185 | 0.0 | 0.0 | 0.00 | 0.00 | 0.00 | 91 | 1011.5 |
| 20260509062643 | 20 | 190 | 0.0 | 0.0 | 0.00 | 0.00 | 0.00 | 90 | 1011.5 |
| 20260509062140 | 21 | 192 | 0.0 | 0.0 | 0.00 | 0.00 | 0.00 | 90 | 1011.9 |
| 20260509061636 | 21 | 191 | 0.0 | 0.0 | 0.00 | 0.00 | 0.00 | 89 | 1011.8 |
| 20260509061134 | 21 | 195 | 0.0 | 6.4 | 0.00 | 0.00 | 0.00 | 89 | 1011.3 |
| 20260509060632 | 21 | 192 | 1.6 | 3.2 | 0.00 | 0.00 | 0.00 | 88 | 1011.6 |
| 20260509060127 | 21 | 195 | 0.0 | 0.0 | 0.00 | 0.00 | 0.00 | 87 | 1012.2 |
| 20260509055623 | 21 | 190 | 0.0 | 0.0 | 0.00 | 0.05 | 0.05 | 87 | 1011.9 |
| 20260509055119 | 21 | 189 | 1.6 | 1.6 | 0.00 | 0.05 | 0.05 | 87 | 1012.0 |
| 20260509054616 | 21 | 193 | 0.0 | 0.0 | 0.00 | 0.05 | 0.05 | 87 | 1012.6 |
| 20260509054114 | 21 | 228 | 1.6 | 1.6 | 0.00 | 0.05 | 0.05 | 87 | 1012.6 |
| 20260509053612 | 21 | 189 | 0.0 | 0.0 | 0.00 | 0.05 | 0.05 | 86 | 1012.0 |
| 20260509053109 | 21 | 195 | 3.2 | 6.4 | 0.00 | 0.05 | 0.05 | 86 | 1011.7 |
| 20260509052607 | 21 | 188 | 1.6 | 3.2 | 0.00 | 0.05 | 0.05 | 86 | 1011.7 |
| 20260509052104 | 21 | 189 | 0.0 | 1.6 | 0.00 | 0.05 | 0.05 | 86 | 1011.6 |
| 20260509051602 | 22 | 183 | 3.2 | 4.8 | 0.00 | 0.05 | 0.05 | 85 | 1011.4 |
| 20260509051053 | 22 | 206 | 3.2 | 4.8 | 0.00 | 0.05 | 0.05 | 84 | 1011.5 |
| 20260509050550 | 22 | 192 | 1.6 | 6.4 | 0.00 | 0.05 | 0.05 | 84 | 1011.2 |
| 20260509050046 | 22 | 207 | 3.2 | 11.3 | 0.00 | 0.05 | 0.05 | 85 | 1011.0 |
| 20260509045544 | 22 | 199 | 6.4 | 9.7 | 0.00 | 0.05 | 0.05 | 84 | 1011.1 |
| 20260509045041 | 22 | 158 | 3.2 | 4.8 | 0.00 | 0.05 | 0.05 | 84 | 1011.5 |
| 20260509044538 | 22 | 193 | 0.0 | 0.0 | 0.00 | 0.05 | 0.05 | 84 | 1011.6 |
| 20260509044035 | 22 | 189 | 0.0 | 0.0 | 0.00 | 0.05 | 0.05 | 84 | 1011.6 |
| 20260509043532 | 22 | 185 | 1.6 | 1.6 | 0.00 | 0.05 | 0.05 | 84 | 1011.7 |
| 20260509043027 | 22 | 197 | 0.0 | 0.0 | 0.00 | 0.05 | 0.05 | 84 | 1011.9 |
| 20260509042524 | 22 | 195 | 0.0 | 0.0 | 0.00 | 0.05 | 0.05 | 84 | 1011.9 |
| 20260509042021 | 22 | 192 | 0.0 | 0.0 | 0.00 | 0.05 | 0.05 | 85 | 1011.9 |
| 20260509041517 | 22 | 188 | 1.6 | 3.2 | 0.00 | 0.05 | 0.05 | 84 | 1011.9 |
| 20260509041015 | 22 | 192 | 1.6 | 3.2 | 0.00 | 0.05 | 0.05 | 84 | 1011.7 |
| 20260509040513 | 22 | 190 | 0.0 | 3.2 | 0.00 | 0.05 | 0.05 | 84 | 1011.8 |
| 20260509040010 | 22 | 194 | 0.0 | 3.2 | 0.00 | 0.05 | 0.05 | 84 | 1011.9 |
| 20260509035507 | 22 | 191 | 0.0 | 1.6 | 0.00 | 0.05 | 0.05 | 84 | 1011.9 |
| 20260509035003 | 22 | 190 | 0.0 | 1.6 | 0.00 | 0.05 | 0.05 | 84 | 1011.6 |
| 20260509034501 | 22 | 195 | 0.0 | 3.2 | 0.00 | 0.05 | 0.05 | 84 | 1011.5 |
| 20260509033957 | 22 | 192 | 1.6 | 3.2 | 0.00 | 0.05 | 0.05 | 83 | 1011.5 |
| 20260509033454 | 22 | 187 | 0.0 | 3.2 | 0.00 | 0.05 | 0.05 | 83 | 1011.5 |
| 20260509032951 | 22 | 190 | 1.6 | 1.6 | 0.00 | 0.05 | 0.05 | 83 | 1011.2 |
| 20260509032448 | 22 | 186 | 0.0 | 1.6 | 0.00 | 0.05 | 0.05 | 83 | 1011.3 |
| 20260509031946 | 22 | 191 | 1.6 | 1.6 | 0.00 | 0.05 | 0.05 | 83 | 1011.2 |
| 20260509031443 | 22 | 181 | 0.0 | 3.2 | 0.00 | 0.05 | 0.05 | 82 | 1011.3 |
| 20260509030940 | 22 | 184 | 0.0 | 4.8 | 0.00 | 0.05 | 0.05 | 82 | 1011.3 |
| 20260509030438 | 22 | 197 | 1.6 | 4.8 | 0.00 | 0.05 | 0.05 | 81 | 1011.2 |
| 20260509025935 | 22 | 176 | 3.2 | 6.4 | 0.00 | 0.05 | 0.05 | 81 | 1011.1 |
| 20260509025431 | 22 | 198 | 1.6 | 4.8 | 0.00 | 0.05 | 0.05 | 81 | 1011.0 |
| 20260509024926 | 22 | 198 | 1.6 | 3.2 | 0.00 | 0.05 | 0.05 | 81 | 1010.8 |
| 20260509024422 | 22 | 193 | 1.6 | 4.8 | 0.00 | 0.05 | 0.05 | 81 | 1010.8 |
| 20260509023919 | 22 | 203 | 3.2 | 6.4 | 0.00 | 0.05 | 0.05 | 81 | 1010.5 |
| 20260509023417 | 22 | 168 | 3.2 | 6.4 | 0.00 | 0.05 | 0.05 | 80 | 1010.5 |
| 20260509022913 | 22 | 187 | 3.2 | 4.8 | 0.00 | 0.05 | 0.05 | 80 | 1010.7 |
| 20260509022410 | 22 | 194 | 3.2 | 3.2 | 0.00 | 0.05 | 0.05 | 80 | 1010.7 |
| 20260509021908 | 22 | 200 | 1.6 | 4.8 | 0.00 | 0.05 | 0.05 | 80 | 1010.6 |
| 20260509021404 | 22 | 205 | 0.0 | 1.6 | 0.00 | 0.05 | 0.05 | 79 | 1010.5 |
| 20260509020902 | 22 | 192 | 0.0 | 3.2 | 0.00 | 0.05 | 0.05 | 79 | 1010.7 |
| 20260509020400 | 22 | 194 | 0.0 | 3.2 | 0.00 | 0.05 | 0.05 | 79 | 1010.7 |
| 20260509015857 | 22 | 192 | 0.0 | 1.6 | 0.00 | 0.05 | 0.05 | 79 | 1010.5 |
| 20260509015355 | 22 | 193 | 0.0 | 0.0 | 0.00 | 0.05 | 0.05 | 79 | 1010.6 |
| 20260509014851 | 22 | 194 | 0.0 | 1.6 | 0.00 | 0.05 | 0.05 | 79 | 1010.6 |
| 20260509014348 | 22 | 187 | 1.6 | 1.6 | 0.00 | 0.05 | 0.05 | 79 | 1010.6 |
| 20260509013845 | 22 | 190 | 0.0 | 1.6 | 0.00 | 0.05 | 0.05 | 79 | 1010.4 |
| 20260509013342 | 22 | 193 | 0.0 | 0.0 | 0.00 | 0.05 | 0.05 | 79 | 1010.5 |
| 20260509012837 | 22 | 195 | 1.6 | 3.2 | 0.00 | 0.05 | 0.05 | 79 | 1010.3 |
| 20260509012334 | 22 | 196 | 0.0 | 3.2 | 0.00 | 0.05 | 0.05 | 79 | 1010.1 |
| 20260509011832 | 22 | 199 | 1.6 | 4.8 | 0.00 | 0.05 | 0.05 | 79 | 1010.0 |
| 20260509011329 | 22 | 196 | 1.6 | 4.8 | 0.00 | 0.05 | 0.05 | 79 | 1010.0 |
| 20260509010827 | 22 | 188 | 1.6 | 3.2 | 0.00 | 0.05 | 0.05 | 79 | 1009.8 |
| 20260509010324 | 22 | 199 | 0.0 | 3.2 | 0.00 | 0.05 | 0.05 | 78 | 1009.6 |
| 20260509005821 | 22 | 190 | 0.0 | 3.2 | 0.00 | 0.05 | 0.05 | 78 | 1009.6 |
| 20260509005319 | 22 | 214 | 0.0 | 1.6 | 0.00 | 0.05 | 0.05 | 77 | 1009.6 |
| 20260509004819 | 23 | 189 | 1.6 | 3.2 | 0.00 | 0.05 | 0.05 | 77 | 1009.6 |
| 20260509004310 | 23 | 194 | 1.6 | 4.8 | 0.00 | 0.05 | 0.05 | 77 | 1009.5 |
| 20260509003808 | 23 | 199 | 1.6 | 4.8 | 0.00 | 0.05 | 0.05 | 76 | 1009.6 |
| 20260509003306 | 23 | 190 | 3.2 | 4.8 | 0.00 | 0.05 | 0.05 | 76 | 1009.5 |
| 20260509002802 | 23 | 195 | 3.2 | 4.8 | 0.00 | 0.05 | 0.05 | 76 | 1009.7 |
| 20260509002300 | 23 | 201 | 6.4 | 6.4 | 0.00 | 0.05 | 0.05 | 75 | 1009.7 |
| 20260509001758 | 23 | 180 | 1.6 | 3.2 | 0.00 | 0.05 | 0.05 | 76 | 1009.7 |
| 20260509001253 | 23 | 199 | 3.2 | 9.7 | 0.00 | 0.05 | 0.05 | 76 | 1009.7 |
| 20260509000751 | 23 | 193 | 0.0 | 6.4 | 0.00 | 0.05 | 0.05 | 77 | 1009.9 |
| 20260509000248 | 23 | 189 | 4.8 | 6.4 | 0.00 | 0.05 | 0.05 | 76 | 1010.0 |
| 20260508235745 | 23 | 201 | 1.6 | 6.4 | 0.00 | 0.05 | 0.05 | 76 | 1009.9 |
| 20260508235242 | 23 | 201 | 1.6 | 3.2 | 0.00 | 0.05 | 0.05 | 75 | 1010.3 |
| 20260508234739 | 23 | 192 | 3.2 | 3.2 | 0.00 | 0.05 | 0.05 | 75 | 1010.1 |
| 20260508234235 | 23 | 192 | 1.6 | 4.8 | 0.00 | 0.05 | 0.05 | 75 | 1010.1 |
| 20260508233735 | 23 | 214 | 1.6 | 4.8 | 0.00 | 0.05 | 0.05 | 74 | 1010.0 |
| 20260508233232 | 23 | 216 | 3.2 | 9.7 | 0.00 | 0.05 | 0.05 | 74 | 1010.2 |
| 20260508232730 | 24 | 198 | 1.6 | 6.4 | 0.00 | 0.05 | 0.05 | 72 | 1010.2 |
| 20260508232226 | 25 | 175 | 1.6 | 4.8 | 0.00 | 0.05 | 0.05 | 70 | 1010.1 |
| 20260508231724 | 24 | 211 | 3.2 | 6.4 | 0.00 | 0.05 | 0.05 | 71 | 1010.1 |
| 20260508231220 | 23 | 206 | 1.6 | 3.2 | 0.00 | 0.05 | 0.05 | 72 | 1010.0 |
| 20260508230717 | 23 | 199 | 1.6 | 1.6 | 0.00 | 0.05 | 0.05 | 73 | 1010.0 |
| 20260508230213 | 23 | 232 | 3.2 | 4.8 | 0.00 | 0.05 | 0.05 | 73 | 1010.1 |
| 20260508225712 | 23 | 213 | 1.6 | 4.8 | 0.00 | 0.05 | 0.05 | 73 | 1010.0 |
| 20260508225208 | 23 | 173 | 0.0 | 3.2 | 0.00 | 0.05 | 0.05 | 74 | 1010.2 |
| 20260508224706 | 23 | 188 | 1.6 | 1.6 | 0.00 | 0.05 | 0.05 | 73 | 1010.3 |
| 20260508224203 | 23 | 228 | 3.2 | 4.8 | 0.00 | 0.05 | 0.05 | 73 | 1010.3 |
| 20260508223700 | 23 | 204 | 0.0 | 4.8 | 0.00 | 0.05 | 0.05 | 73 | 1010.4 |
| 20260508223157 | 22 | 196 | 0.0 | 4.8 | 0.00 | 0.05 | 0.05 | 74 | 1010.2 |
| 20260508222655 | 22 | 234 | 3.2 | 6.4 | 0.00 | 0.05 | 0.05 | 74 | 1010.6 |
| 20260508222152 | 22 | 206 | 1.6 | 3.2 | 0.00 | 0.05 | 0.05 | 75 | 1010.4 |
| 20260508221643 | 22 | 171 | 3.2 | 6.4 | 0.00 | 0.05 | 0.05 | 74 | 1010.5 |
| 20260508221138 | 22 | 190 | 6.4 | 6.4 | 0.00 | 0.05 | 0.05 | 73 | 1010.3 |
| 20260508220635 | 23 | 200 | 4.8 | 11.3 | 0.00 | 0.05 | 0.05 | 75 | 1010.6 |
| 20260508220132 | 23 | 224 | 4.8 | 11.3 | 0.00 | 0.05 | 0.05 | 75 | 1010.5 |
| 20260508215629 | 22 | 191 | 1.6 | 6.4 | 0.00 | 0.05 | 0.05 | 74 | 1010.3 |
| 20260508215125 | 22 | 204 | 1.6 | 4.8 | 0.00 | 0.05 | 0.05 | 77 | 1010.3 |
| 20260508214622 | 22 | 207 | 3.2 | 6.4 | 0.00 | 0.05 | 0.05 | 78 | 1010.1 |
| 20260508214120 | 22 | 203 | 3.2 | 6.4 | 0.00 | 0.05 | 0.05 | 78 | 1009.7 |
| 20260508213616 | 22 | 178 | 1.6 | 11.3 | 0.00 | 0.05 | 0.05 | 79 | 1008.7 |
| 20260508213112 | 21 | 312 | 6.4 | 12.9 | 0.00 | 0.05 | 0.05 | 79 | 1008.5 |
| 20260508212609 | 21 | 82 | 4.8 | 11.3 | 0.00 | 0.05 | 0.05 | 80 | 1009.1 |
| 20260508212106 | 21 | 188 | 3.2 | 12.9 | 0.00 | 0.05 | 0.05 | 79 | 1010.5 |
| 20260508211601 | 22 | 192 | 9.7 | 11.3 | 0.00 | 0.05 | 0.05 | 80 | 1011.7 |
| 20260508211057 | 22 | 237 | 4.8 | 9.7 | 0.13 | 0.05 | 0.05 | 84 | 1011.6 |
| 20260508210554 | 22 | 218 | 4.8 | 6.4 | 0.30 | 0.05 | 0.05 | 81 | 1011.9 |
| 20260508210051 | 23 | 173 | 1.6 | 4.8 | 0.00 | 0.00 | 0.00 | 75 | 1012.0 |
| 20260508205549 | 24 | 204 | 4.8 | 6.4 | 0.00 | 0.00 | 0.00 | 68 | 1011.9 |
| 20260508205044 | 25 | 215 | 6.4 | 9.7 | 0.00 | 0.00 | 0.00 | 68 | 1012.0 |
| 20260508204541 | 24 | 244 | 3.2 | 4.8 | 0.00 | 0.00 | 0.00 | 67 | 1011.9 |
| 20260508204037 | 25 | 220 | 8.0 | 14.5 | 0.00 | 0.00 | 0.00 | 65 | 1012.0 |
| 20260508203534 | 25 | 205 | 6.4 | 9.7 | 0.00 | 0.00 | 0.00 | 63 | 1012.1 |
| 20260508203029 | 25 | 179 | 4.8 | 6.4 | 0.00 | 0.00 | 0.00 | 64 | 1012.2 |
| 20260508202527 | 26 | 223 | 4.8 | 6.4 | 0.00 | 0.00 | 0.00 | 62 | 1011.9 |
| 20260508202024 | 27 | 223 | 8.0 | 11.3 | 0.00 | 0.00 | 0.00 | 60 | 1011.9 |
| 20260508201520 | 27 | 182 | 4.8 | 9.7 | 0.00 | 0.00 | 0.00 | 59 | 1011.6 |
| 20260508201017 | 27 | 201 | 4.8 | 9.7 | 0.00 | 0.00 | 0.00 | 60 | 1011.7 |
| 20260508200514 | 27 | 195 | 3.2 | 4.8 | 0.00 | 0.00 | 0.00 | 59 | 1011.7 |
| 20260508200010 | 27 | 210 | 3.2 | 11.3 | 0.00 | 0.00 | 0.00 | 59 | 1011.6 |
| 20260508195507 | 26 | 189 | 1.6 | 6.4 | 0.00 | 0.00 | 0.00 | 61 | 1012.0 |
| 20260508195003 | 27 | 219 | 3.2 | 6.4 | 0.00 | 0.00 | 0.00 | 59 | 1012.0 |
| 20260508194500 | 27 | 200 | 3.2 | 6.4 | 0.00 | 0.00 | 0.00 | 59 | 1012.0 |
| 20260508193957 | 27 | 173 | 3.2 | 11.3 | 0.00 | 0.00 | 0.00 | 60 | 1011.9 |
| 20260508193453 | 26 | 190 | 1.6 | 9.7 | 0.00 | 0.00 | 0.00 | 62 | 1012.0 |
| 20260508192950 | 26 | 231 | 4.8 | 11.3 | 0.00 | 0.00 | 0.00 | 61 | 1012.0 |
| 20260508192447 | 26 | 199 | 4.8 | 9.7 | 0.00 | 0.00 | 0.00 | 61 | 1012.0 |
| 20260508191943 | 26 | 200 | 4.8 | 9.7 | 0.00 | 0.00 | 0.00 | 60 | 1012.5 |
| 20260508191441 | 25 | 172 | 6.4 | 14.5 | 0.00 | 0.00 | 0.00 | 61 | 1012.3 |
| 20260508190937 | 25 | 194 | 4.8 | 9.7 | 0.00 | 0.00 | 0.00 | 61 | 1012.8 |
| 20260508190435 | 25 | 220 | 4.8 | 12.9 | 0.00 | 0.00 | 0.00 | 61 | 1012.7 |
| 20260508185931 | 25 | 185 | 3.2 | 12.9 | 0.00 | 0.00 | 0.00 | 62 | 1012.6 |
| 20260508185428 | 25 | 201 | 9.7 | 12.9 | 0.00 | 0.00 | 0.00 | 61 | 1012.8 |
| 20260508184926 | 26 | 201 | 8.0 | 11.3 | 0.00 | 0.00 | 0.00 | 61 | 1012.7 |
| 20260508184423 | 26 | 201 | 3.2 | 9.7 | 0.00 | 0.00 | 0.00 | 61 | 1012.7 |
| 20260508183919 | 26 | 262 | 4.8 | 11.3 | 0.00 | 0.00 | 0.00 | 58 | 1012.8 |
| 20260508183416 | 27 | 165 | 3.2 | 9.7 | 0.00 | 0.00 | 0.00 | 58 | 1012.9 |
| 20260508182911 | 27 | 201 | 6.4 | 9.7 | 0.00 | 0.00 | 0.00 | 58 | 1012.8 |
| 20260508182409 | 27 | 216 | 8.0 | 11.3 | 0.00 | 0.00 | 0.00 | 58 | 1013.0 |
| 20260508181904 | 27 | 209 | 1.6 | 4.8 | 0.00 | 0.00 | 0.00 | 60 | 1013.2 |
| 20260508181401 | 26 | 222 | 3.2 | 6.4 | 0.00 | 0.00 | 0.00 | 59 | 1013.2 |
| 20260508180858 | 26 | 171 | 1.6 | 4.8 | 0.00 | 0.00 | 0.00 | 60 | 1013.2 |
| 20260508180354 | 26 | 157 | 4.8 | 14.5 | 0.00 | 0.00 | 0.00 | 58 | 1013.2 |
| 20260508175845 | 26 | 174 | 3.2 | 6.4 | 0.00 | 0.00 | 0.00 | 59 | 1013.5 |
| 20260508175342 | 25 | 223 | 3.2 | 6.4 | 0.00 | 0.00 | 0.00 | 58 | 1013.2 |
| 20260508174840 | 25 | 210 | 3.2 | 9.7 | 0.00 | 0.00 | 0.00 | 58 | 1013.4 |
| 20260508174337 | 26 | 200 | 4.8 | 9.7 | 0.00 | 0.00 | 0.00 | 58 | 1013.7 |
| 20260508173833 | 26 | 227 | 3.2 | 6.4 | 0.00 | 0.00 | 0.00 | 59 | 1013.7 |
| 20260508173331 | 26 | 229 | 3.2 | 11.3 | 0.00 | 0.00 | 0.00 | 58 | 1013.7 |
| 20260508172826 | 25 | 181 | 1.6 | 4.8 | 0.00 | 0.00 | 0.00 | 60 | 1013.8 |
| 20260508172324 | 25 | 191 | 3.2 | 11.3 | 0.00 | 0.00 | 0.00 | 60 | 1013.8 |
| 20260508171820 | 25 | 193 | 8.0 | 11.3 | 0.00 | 0.00 | 0.00 | 59 | 1013.9 |
| 20260508171316 | 25 | 214 | 8.0 | 9.7 | 0.00 | 0.00 | 0.00 | 59 | 1014.0 |
| 20260508170813 | 24 | 188 | 1.6 | 11.3 | 0.00 | 0.00 | 0.00 | 62 | 1014.2 |
| 20260508170312 | 23 | 220 | 3.2 | 6.4 | 0.00 | 0.00 | 0.00 | 63 | 1014.3 |
| 20260508165808 | 23 | 155 | 3.2 | 9.7 | 0.00 | 0.00 | 0.00 | 64 | 1014.5 |
| 20260508165307 | 23 | 180 | 3.2 | 9.7 | 0.00 | 0.00 | 0.00 | 64 | 1014.6 |
| 20260508164801 | 23 | 205 | 3.2 | 9.7 | 0.00 | 0.00 | 0.00 | 64 | 1014.9 |
| 20260508164258 | 23 | 203 | 3.2 | 6.4 | 0.00 | 0.00 | 0.00 | 65 | 1014.9 |
| 20260508163756 | 22 | 205 | 4.8 | 12.9 | 0.00 | 0.00 | 0.00 | 65 | 1014.9 |
| 20260508163254 | 22 | 173 | 3.2 | 11.3 | 0.00 | 0.00 | 0.00 | 65 | 1015.1 |
| 20260508162749 | 22 | 178 | 3.2 | 9.7 | 0.00 | 0.00 | 0.00 | 67 | 1014.9 |
| 20260508162246 | 22 | 162 | 3.2 | 11.3 | 0.00 | 0.00 | 0.00 | 66 | 1015.2 |
| 20260508161743 | 22 | 188 | 8.0 | 11.3 | 0.00 | 0.00 | 0.00 | 67 | 1015.2 |
| 20260508161240 | 22 | 180 | 4.8 | 9.7 | 0.00 | 0.00 | 0.00 | 66 | 1015.1 |
| 20260508160738 | 22 | 180 | 6.4 | 12.9 | 0.00 | 0.00 | 0.00 | 67 | 1015.3 |
| 20260508160236 | 22 | 218 | 4.8 | 11.3 | 0.00 | 0.00 | 0.00 | 67 | 1015.3 |
| 20260508155726 | 22 | 164 | 1.6 | 9.7 | 0.00 | 0.00 | 0.00 | 66 | 1015.5 |
| 20260508155224 | 22 | 193 | 4.8 | 9.7 | 0.00 | 0.00 | 0.00 | 65 | 1015.4 |
| 20260508154720 | 22 | 232 | 3.2 | 6.4 | 0.00 | 0.00 | 0.00 | 67 | 1015.8 |
| 20260508154218 | 22 | 184 | 4.8 | 9.7 | 0.00 | 0.00 | 0.00 | 66 | 1015.7 |
| 20260508153714 | 22 | 180 | 1.6 | 4.8 | 0.00 | 0.00 | 0.00 | 67 | 1015.6 |
| 20260508153211 | 22 | 188 | 4.8 | 9.7 | 0.00 | 0.00 | 0.00 | 67 | 1015.6 |
| 20260508152708 | 22 | 187 | 1.6 | 6.4 | 0.00 | 0.00 | 0.00 | 67 | 1015.9 |
| 20260508152204 | 22 | 184 | 1.6 | 4.8 | 0.00 | 0.00 | 0.00 | 68 | 1015.7 |
| 20260508151700 | 21 | 180 | 1.6 | 6.4 | 0.00 | 0.00 | 0.00 | 67 | 1015.7 |
| 20260508151157 | 21 | 189 | 1.6 | 9.7 | 0.00 | 0.00 | 0.00 | 67 | 1015.7 |
| 20260508150654 | 21 | 171 | 3.2 | 11.3 | 0.00 | 0.00 | 0.00 | 67 | 1015.8 |
| 20260508150151 | 21 | 202 | 4.8 | 9.7 | 0.00 | 0.00 | 0.00 | 67 | 1015.7 |
| 20260508145646 | 21 | 215 | 1.6 | 9.7 | 0.00 | 0.00 | 0.00 | 68 | 1015.8 |
| 20260508145143 | 21 | 209 | 3.2 | 9.7 | 0.00 | 0.00 | 0.00 | 68 | 1015.7 |
| 20260508144641 | 21 | 189 | 8.0 | 11.3 | 0.00 | 0.00 | 0.00 | 66 | 1015.9 |
| 20260508144138 | 21 | 126 | 3.2 | 3.2 | 0.00 | 0.00 | 0.00 | 66 | 1015.8 |
| 20260508143635 | 21 | 113 | 1.6 | 6.4 | 0.00 | 0.00 | 0.00 | 66 | 1015.5 |
| 20260508143132 | 21 | 163 | 6.4 | 11.3 | 0.00 | 0.00 | 0.00 | 65 | 1015.7 |
| 20260508142628 | 21 | 185 | 3.2 | 6.4 | 0.00 | 0.00 | 0.00 | 66 | 1015.7 |
| 20260508142125 | 21 | 91 | 3.2 | 4.8 | 0.00 | 0.00 | 0.00 | 66 | 1015.8 |
| 20260508141622 | 21 | 194 | 4.8 | 6.4 | 0.00 | 0.00 | 0.00 | 67 | 1015.9 |
| 20260508141120 | 21 | 185 | 1.6 | 4.8 | 0.00 | 0.00 | 0.00 | 68 | 1016.1 |
| 20260508140617 | 21 | 139 | 3.2 | 9.7 | 0.00 | 0.00 | 0.00 | 68 | 1016.0 |
| 20260508140114 | 20 | 195 | 1.6 | 3.2 | 0.00 | 0.00 | 0.00 | 68 | 1016.1 |
| 20260508135608 | 20 | 198 | 1.6 | 11.3 | 0.00 | 0.00 | 0.00 | 68 | 1016.2 |
| 20260508135105 | 20 | 162 | 0.0 | 3.2 | 0.00 | 0.00 | 0.00 | 69 | 1016.2 |
| 20260508134602 | 20 | 188 | 1.6 | 4.8 | 0.00 | 0.00 | 0.00 | 69 | 1016.3 |
| 20260508134059 | 20 | 159 | 1.6 | 3.2 | 0.00 | 0.00 | 0.00 | 70 | 1016.2 |
| 20260508133555 | 20 | 162 | 1.6 | 4.8 | 0.00 | 0.00 | 0.00 | 70 | 1016.3 |
| 20260508133053 | 19 | 128 | 3.2 | 4.8 | 0.00 | 0.00 | 0.00 | 72 | 1016.3 |
| 20260508132550 | 19 | 193 | 1.6 | 3.2 | 0.00 | 0.00 | 0.00 | 73 | 1015.9 |
| 20260508132047 | 19 | 126 | 3.2 | 4.8 | 0.00 | 0.00 | 0.00 | 73 | 1016.1 |
| 20260508131543 | 19 | 178 | 1.6 | 4.8 | 0.00 | 0.00 | 0.00 | 73 | 1016.2 |
| 20260508131040 | 19 | 191 | 0.0 | 0.0 | 0.00 | 0.00 | 0.00 | 74 | 1016.2 |
| 20260508130537 | 18 | 171 | 1.6 | 3.2 | 0.00 | 0.00 | 0.00 | 76 | 1016.3 |
| 20260508130033 | 18 | 166 | 4.8 | 4.8 | 0.00 | 0.00 | 0.00 | 77 | 1016.2 |
| 20260508125529 | 17 | 167 | 3.2 | 3.2 | 0.00 | 0.00 | 0.00 | 78 | 1016.2 |
| 20260508125027 | 17 | 158 | 1.6 | 1.6 | 0.00 | 0.00 | 0.00 | 81 | 1016.0 |
| 20260508124524 | 17 | 166 | 1.6 | 3.2 | 0.00 | 0.00 | 0.00 | 82 | 1016.1 |
| 20260508124021 | 16 | 168 | 1.6 | 3.2 | 0.00 | 0.00 | 0.00 | 84 | 1015.8 |
| 20260508123520 | 16 | 189 | 0.0 | 4.8 | 0.00 | 0.00 | 0.00 | 85 | 1015.9 |
| 20260508123016 | 16 | 185 | 0.0 | 3.2 | 0.00 | 0.00 | 0.00 | 87 | 1016.0 |
| 20260508122513 | 15 | 184 | 0.0 | 3.2 | 0.00 | 0.00 | 0.00 | 89 | 1015.9 |
| 20260508122010 | 15 | 174 | 1.6 | 1.6 | 0.00 | 0.00 | 0.00 | 90 | 1015.9 |
| 20260508121508 | 15 | 184 | 1.6 | 1.6 | 0.00 | 0.00 | 0.00 | 90 | 1016.2 |
| 20260508121006 | 15 | 193 | 0.0 | 1.6 | 0.00 | 0.00 | 0.00 | 89 | 1016.3 |
| 20260508120503 | 15 | 181 | 0.0 | 1.6 | 0.00 | 0.00 | 0.00 | 90 | 1016.2 |
| 20260508120001 | 15 | 186 | 0.0 | 1.6 | 0.00 | 0.00 | 0.00 | 90 | 1016.2 |
| 20260508115459 | 15 | 169 | 1.6 | 1.6 | 0.00 | 0.00 | 0.00 | 90 | 1015.9 |
| 20260508114955 | 15 | 186 | 0.0 | 0.0 | 0.00 | 0.00 | 0.00 | 89 | 1016.6 |
| 20260508114452 | 15 | 195 | 0.0 | 0.0 | 0.00 | 0.00 | 0.00 | 90 | 1016.5 |
| 20260508113948 | 15 | 184 | 0.0 | 1.6 | 0.00 | 0.00 | 0.00 | 90 | 1016.4 |
| 20260508113446 | 15 | 215 | 3.2 | 3.2 | 0.00 | 0.00 | 0.00 | 92 | 1016.7 |
| 20260508112943 | 15 | 346 | 4.8 | 4.8 | 0.00 | 0.00 | 0.00 | 92 | 1016.7 |